TOURFACTS.DK  
Stats and Facts from Tour de France.

Tour de France 2019 starts in 348 days
  Riders   Stages   Teams   Summits   Yearly  


 
Search by year

After 2018 - Stage 14:
 15000 starters.
  5163 different riders.
  639 teams.
  2246 stages.
  456 restdays.
  441957.60 km.
  5678 abandonnees.


Top 3
GC
Christopher Froome86:20:55
Rigoberto Urán86:21:49
Romain Bardet86:23:15
Climb
Warren Barguil169 pt.
Primoz Roglic80 pt.
Thomas De Gendt64 pt.
Sprint
Michael Matthews359 pt.
André Greipel234 pt.
Edvald Boasson Hagen220 pt.
Youth
Simon Yates86:27:09
Louis Meintjes86:29:15
Emanuel Buchmann86:54:16
Facts from Tour de France 1935
  |   Stages.  |   Stage winners.  |   Days in yellow  |   Average speed.  |   Route.  |   Teams.  |   All riders.  |   Rookies.  |  

  |   Withdrawls.  |   GC.  |   Polka  |   Green  |   White  |   Summits. (In tour)  |   Miscellaneous.  |  

Stage 6 on July 10th. 1935
         Owning:    Romain Maes    
Pick a stage:  1 2 3 4 5a 5b 6 7 8 9 10 11 12 13a 13b 14a 14b 15 16 17 18a 18b 19a 19b 20a 20b 21
From: Evian    To: Aix-les-BainsDist:207.00 km.
Cat: Col de l'Aravis - ThônesFRARené Vietto
10 points
 

Average speed for all riders in stage:  31,282 km./hr.
    Place:Name:Team:Time:Km/h:
FRARené ViettoFRAFrance06:23:42  +  00:00:00=32,369 
FRARené Le GrevesFRAFrance06:23:42  +  00:00:00=32,369 
ITAVasco BergamaschiITAItaly06:23:42  +  00:00:00=32,369 
4 ITAAmbrogio MorelliITACadetti Italiens06:23:42  +  00:00:00=32,369 
5 BELRomain MaesBELBelgium06:23:42  +  00:00:00=32,369 
6 FRACharles BertyTouristes Routiers06:23:42  +  00:00:00=32,369 
7 FRAGeorges SpeicherFRAFrance06:23:42  +  00:00:00=32,369 
8 BELFrançois NeuvilleBELBelgium B06:23:42  +  00:00:00=32,369 
9 BELJules LowieBELBelgium B06:23:42  +  00:00:00=32,369 
10 ITADante GianelloTouristes Routiers06:23:42  +  00:00:00=32,369 
11 FRAMaurice ArchambaudFRAFrance06:23:42  +  00:00:00=32,369 
12 GEROskar ThierbachDEUGermany06:23:42  +  00:00:00=32,369 
13 ESPEmiliano AlvarezESPSpain06:23:42  +  00:00:00=32,369 
14 SUILéo AmbergCHESwitzerland06:23:42  +  00:00:00=32,369 
15 FRAAntonin MagneFRAFrance06:23:42  +  00:00:00=32,369 
16 ITAFrancesco CamussoITAItaly06:23:42  +  00:00:00=32,369 
17 GERGeorg UmbenhauerDEUGermany06:23:42  +  00:00:00=32,369 
18 FRABenoit FaureTouristes Routiers06:28:28  +  00:04:46=31,972 
19 BELSylvère MaesBELBelgium B06:28:28  +  00:04:46=31,972 
20 FRAFernand FayolleTouristes Routiers06:28:28  +  00:04:46=31,972 
21 FRAGabriel RuozziTouristes Routiers06:28:28  +  00:04:46=31,972 
22 FRAPierre CoganTouristes Routiers06:28:28  +  00:04:46=31,972 
23 FRAAndré LeducqFRAFrance06:32:39  +  00:08:57=31,631 
24 FRAJoseph MauclairTouristes Routiers06:32:39  +  00:08:57=31,631 
25 SUIKurt StettlerCHESwitzerland06:32:39  +  00:08:57=31,631 
26 BELJean AertsBELBelgium06:34:01  +  00:10:19=31,522 
27 FRAGustave DanneelsBELBelgium06:34:01  +  00:10:19=31,522 
28 BELEdgard De CaluweBELBelgium06:34:01  +  00:10:19=31,522 
29 ESPAntonio PriorESPSpain06:34:01  +  00:10:19=31,522 
30 FRAGeorges LachatTouristes Routiers06:34:01  +  00:10:19=31,522 
31 ITAPietro RimoldiITACadetti Italiens06:34:01  +  00:10:19=31,522 
32 BELHenri GarnierBELBelgium06:34:01  +  00:10:19=31,522 
33 BELLouis HardiquestBELBelgium06:34:01  +  00:10:19=31,522 
34 ESPFrancisco CepedaESPSpain B06:34:01  +  00:10:19=31,522 
35 FRAPaul ChocqueTouristes Routiers06:34:01  +  00:10:19=31,522 
36 FRARené BernardTouristes Routiers06:34:01  +  00:10:19=31,522 
37 GERFerdinand IckesDEUGermany B06:34:01  +  00:10:19=31,522 
38 ITAAdriano VignoliITAItaly06:34:01  +  00:10:19=31,522 
39 ITALuigi GiacobbeITAItaly06:34:01  +  00:10:19=31,522 
40 ITAAldo BertoccoTouristes Routiers06:38:10  +  00:14:28=31,193 
41 SUIFritz HartmannCHESwitzerland06:38:10  +  00:14:28=31,193 
42 FRARobert RenonceTouristes Routiers06:38:10  +  00:14:28=31,193 
43 FRAPierre-Marie CloarecTouristes Routiers06:38:10  +  00:14:28=31,193 
44 ESPThéodore LadronTouristes Routiers06:38:10  +  00:14:28=31,193 
45 FRACharles PelissierFRAFrance B06:38:10  +  00:14:28=31,193 
46 GERGeorg StachDEUGermany B06:38:10  +  00:14:28=31,193 
47 FRAJules MervielFRAFrance06:38:10  +  00:14:28=31,193 
48 BELFélicien VervaeckeBELBelgium06:38:10  +  00:14:28=31,193 
49 ITARemo BertoniITAItaly06:38:10  +  00:14:28=31,193 
50 GERGeorge HaendelDEUGermany B06:38:10  +  00:14:28=31,193 
51 GERBruno RothDEUGermany B06:38:10  +  00:14:28=31,193 
52 ESPSalvador CardonaESPSpain06:38:10  +  00:14:28=31,193 
53 GEROtto WeckerlingDEUGermany06:38:10  +  00:14:28=31,193 
54 FRAHonore GranierTouristes Routiers06:38:10  +  00:14:28=31,193 
55 FRAJean FontenayFRAFrance B06:42:35  +  00:18:53=30,851 
56 FRAGeorges HubatzTouristes Routiers06:46:49  +  00:23:07=30,530 
57 FRAJean PhilipTouristes Routiers06:46:49  +  00:23:07=30,530 
58 FRARené DebenneFRAFrance06:46:49  +  00:23:07=30,530 
59 ESPManuel GarciaTouristes Routiers06:46:49  +  00:23:07=30,530 
60 FRAClément BistagneTouristes Routiers06:46:49  +  00:23:07=30,530 
61 ITARafaële Di PacoITAItaly06:46:49  +  00:23:07=30,530 
62 ITAOrlando TeaniITACadetti Italiens06:46:49  +  00:23:07=30,530 
63 GERWilly KutschbachDEUGermany06:46:49  +  00:23:07=30,530 
64 GEREmil KijewskiDEUGermany06:46:49  +  00:23:07=30,530 
65 BELAntoine DignefBELBelgium B06:46:49  +  00:23:07=30,530 
66 GERAnton HodeyDEUGermany06:49:38  +  00:25:56=30,320 
67 GERKarl HeideDEUGermany06:49:38  +  00:25:56=30,320 
68 ITAOreste BernardoniTouristes Routiers06:49:38  +  00:25:56=30,320 
69 ESPVicente BacheroESPSpain B06:49:38  +  00:25:56=30,320 
70 FRAJulien MoineauFRAFrance B06:55:23  +  00:31:41=29,900 
71 FRARoger LapebieFRAFrance B06:55:23  +  00:31:41=29,900 
72 LUXJosy KrausTouristes Routiers07:00:30  +  00:36:48=29,536 
73 FRALouis ThiétardTouristes Routiers07:00:30  +  00:36:48=29,536 
74 ESPDemetrio VicenteESPSpain B07:04:38  +  00:40:56=29,249 
75 FRAMaurice PomarèdeTouristes Routiers07:20:01  +  00:56:19=28,226 

Withdrawls: 3
 
Rider
Team
Reason
24  ESPIsidro FiguerasESPSpainDid not finish
25  GERKurt StöpelDEUGermanyDid not finish
57  ITAEugenio GestriITACadetti ItaliensDid not finish

Todays birthdays.

1877  Antoine Perrichon
1878  Auguste Berthault
1911  Théo Herckenrath
1924  Carlo Lafranchi
1931  Armand Di Caro
1937  Jean-Claude Lebaube
1951  Giovanni Battaglin
1961  Pascal Jules
1962  Jean-Claude Leclercq
1976  Janek Tombak
1978  Francisco Pérez
1983  Dries Devenyns




Visits: